Portada
METAR-TAF:

METAR-TAF

Aeroports :

Wagga Wagga, Austràlia

latitud: 35-09S, longitud: 147-27E, altitud: 221 m

Observació

L'informe es va fer fa 18 minuts, a les 16:00 UTC
Vent 13 kt del Est
Temperatura 15°C
Humitat 100%
Pressió 1015 hPa
Visibilitat 10 km o més
Núvols disperses a una alçada de 6900 ft
Cel cobert a una alçada de 8600 ft

METAR: YSWG 161600Z AUTO 08013KT 9999 // SCT069 OVC086 15/15 Q1015

Hora: 03:18 (16:18 UTC)


TAF: manca

Observacions i pronòstics meteorològics de més de 4000 aeroports (METAR i TAF).

Les estacions disponibles són els punts grocs i vermells al mapa.

Posi el ratolí al punt desitjat per veure el nom de l'estació.

Feu clic per veure les observacions i els pronòstics meteorològics.

Per canviar el mapa: feu clic els botons verds amb una creu de color negre per apropar; al botó verd amb un guió per allunyar la imatge; o en les fletxes verdes per a mapes adjacents.


METAR-TAF: